EW5835 Weather Reports


Display with metric or nautical units.
time (UTC)temp
F
wind
direction
speed
MPH
gust
MPH
rain 1hr
in
rain 24hr
in
rain mn
in
humidity
%
barometer
mb
20210617080709 40 268 0.0 0.0 0.00 0.00 0.00 94 1015.8
20210617080210 40 268 0.0 0.0 0.00 0.00 0.00 94 1015.9
20210617075709 40 268 0.0 0.0 0.00 0.00 0.00 93 1015.9
20210617075208 40 268 0.0 0.0 0.00 0.00 0.00 93 1016.1
20210617074709 40 268 0.0 0.0 0.00 0.00 0.00 93 1016.1
20210617074206 41 268 0.0 0.0 0.00 0.00 0.00 93 1016.0
20210617073706 41 268 0.0 0.0 0.00 0.00 0.00 93 1016.1
20210617073209 41 268 0.0 0.0 0.00 0.00 0.00 93 1016.1
20210617072709 41 268 0.0 0.0 0.00 0.00 0.00 93 1016.1
20210617072207 41 268 0.0 0.0 0.00 0.00 0.00 92 1016.2
20210617071708 41 268 0.0 0.0 0.00 0.00 0.00 92 1016.2
20210617071207 41 268 0.0 0.0 0.00 0.00 0.00 92 1016.3
20210617070704 41 268 0.0 0.0 0.00 0.00 0.00 92 1016.2
20210617070207 41 268 0.0 0.0 0.00 0.00 0.00 92 1016.4
20210617065707 42 268 0.0 0.0 0.00 0.00 0.00 92 1016.4
20210617065209 42 268 0.0 1.0 0.00 0.00 0.00 92 1016.5
20210617064706 42 268 0.0 1.0 0.00 0.00 0.00 92 1016.4
20210617064207 42 264 0.0 1.0 0.00 0.00 0.00 92 1016.4
20210617063706 42 271 0.0 1.0 0.00 0.00 0.00 92 1016.5
20210617063206 42 124 0.0 0.0 0.00 0.00 0.00 91 1016.5
20210617062705 42 123 0.0 0.0 0.00 0.00 0.00 91 1016.5
20210617062205 42 123 0.0 0.0 0.00 0.00 0.00 91 1016.5
20210617061707 42 124 0.0 0.0 0.00 0.00 0.00 91 1016.5
20210617061205 42 124 0.0 0.0 0.00 0.00 0.00 90 1016.6
20210617060705 42 123 0.0 0.0 0.00 0.00 0.00 90 1016.5
20210617060204 43 123 0.0 0.0 0.00 0.00 0.00 90 1016.5
20210617055705 43 221 0.0 1.0 0.00 0.00 0.00 91 1016.5
20210617055205 43 240 0.0 2.0 0.00 0.00 0.00 91 1016.4
20210617054704 43 255 0.0 2.0 0.00 0.00 0.00 91 1016.5
20210617054205 43 243 0.0 1.0 0.00 0.00 0.00 91 1016.5
20210617053704 43 243 0.0 0.0 0.00 0.00 0.00 91 1016.5
20210617053203 43 243 0.0 0.0 0.00 0.00 0.00 91 1016.5
20210617052705 43 243 0.0 0.0 0.00 0.00 0.00 91 1016.5
20210617052204 43 243 0.0 0.0 0.00 0.00 0.00 90 1016.6
20210617051703 43 241 0.0 0.0 0.00 0.00 0.00 90 1016.5
20210617051203 43 243 0.0 0.0 0.00 0.00 0.00 90 1016.6
20210617050703 43 243 0.0 0.0 0.00 0.00 0.00 90 1016.6
20210617050204 44 243 0.0 0.0 0.00 0.00 0.00 90 1016.5
20210617045703 44 241 0.0 0.0 0.00 0.00 0.00 90 1016.5
20210617045203 44 241 0.0 0.0 0.00 0.00 0.00 90 1016.5
20210617044703 44 241 0.0 0.0 0.00 0.00 0.00 90 1016.5
20210617044204 44 243 0.0 0.0 0.00 0.00 0.00 90 1016.4
20210617043700 44 241 0.0 0.0 0.00 0.00 0.00 90 1016.4
20210617043203 44 241 0.0 0.0 0.00 0.00 0.00 90 1016.5
20210617042703 44 243 0.0 1.0 0.00 0.00 0.00 90 1016.5
20210617042204 45 247 0.0 1.0 0.00 0.00 0.00 90 1016.6
20210617041702 45 248 0.0 1.0 0.00 0.00 0.00 89 1016.5
20210617041202 45 248 0.0 0.0 0.00 0.00 0.00 88 1016.5
20210617040701 45 248 0.0 0.0 0.00 0.00 0.00 88 1016.5
20210617040202 46 248 0.0 0.0 0.00 0.00 0.00 87 1016.4
20210617035701 46 248 0.0 2.0 0.00 0.00 0.00 87 1016.5
20210617035201 46 248 0.0 2.0 0.00 0.00 0.00 87 1016.4
20210617034701 46 251 0.0 0.0 0.00 0.00 0.00 87 1016.5
20210617034201 46 251 0.0 0.0 0.00 0.00 0.00 87 1016.5
20210617033701 46 251 0.0 0.0 0.00 0.00 0.00 88 1016.6
20210617033159 46 251 0.0 0.0 0.00 0.00 0.00 87 1016.5
20210617032659 47 251 0.0 0.0 0.00 0.00 0.00 87 1016.5
20210617032201 47 251 0.0 0.0 0.00 0.00 0.00 86 1016.4
20210617031659 47 251 0.0 0.0 0.00 0.00 0.00 85 1016.4
20210617031201 47 251 0.0 0.0 0.00 0.00 0.00 85 1016.3
20210617030659 48 251 0.0 0.0 0.00 0.00 0.00 84 1016.3
20210617030159 48 251 0.0 0.0 0.00 0.00 0.00 84 1016.2
20210617025659 48 251 0.0 0.0 0.00 0.00 0.00 83 1016.2
20210617025158 49 250 0.0 1.0 0.00 0.00 0.00 82 1016.2
20210617024659 49 250 0.0 1.0 0.00 0.00 0.00 81 1016.2
20210617024158 49 254 0.0 1.0 0.00 0.00 0.00 81 1016.3
20210617023700 50 254 1.0 1.0 0.00 0.00 0.00 79 1016.2
20210617023159 51 251 0.0 1.0 0.00 0.00 0.00 78 1016.1
20210617022657 51 251 1.0 2.0 0.00 0.00 0.00 76 1016.2
20210617022158 52 261 1.0 2.0 0.00 0.00 0.00 75 1016.1
20210617021657 53 255 1.0 2.0 0.00 0.00 0.00 72 1016.0
20210617021158 54 259 0.0 2.0 0.00 0.00 0.00 67 1016.1
20210617020656 55 336 1.0 6.0 0.00 0.00 0.00 65 1016.0
20210617020158 55 275 2.0 6.0 0.00 0.00 0.00 64 1015.9
20210617015657 55 341 3.0 6.0 0.00 0.00 0.00 64 1016.0
20210617015158 55 357 3.0 5.0 0.00 0.00 0.00 64 1015.8
20210617014656 55 310 2.0 5.0 0.00 0.00 0.00 64 1015.7
20210617014156 55 358 2.0 5.0 0.00 0.00 0.00 64 1015.6
20210617013655 55 317 2.0 4.0 0.00 0.00 0.00 65 1015.5
20210617013157 55 320 2.0 3.0 0.00 0.00 0.00 67 1015.6
20210617012657 54 289 0.0 1.0 0.00 0.00 0.00 68 1015.4
20210617012157 55 275 0.0 1.0 0.00 0.00 0.00 69 1015.4
20210617011657 55 262 0.0 2.0 0.00 0.00 0.00 67 1015.3
20210617011154 55 295 0.0 2.0 0.00 0.00 0.00 67 1015.1
20210617010656 55 340 1.0 2.0 0.00 0.00 0.00 67 1015.0
20210617010155 56 275 0.0 0.0 0.00 0.00 0.00 67 1015.0
20210617005655 56 258 0.0 0.0 0.00 0.00 0.00 66 1014.9
20210617005154 57 258 0.0 1.0 0.00 0.00 0.00 64 1014.7
20210617004654 58 258 0.0 1.0 0.00 0.00 0.00 63 1014.6
20210617004155 58 357 0.0 1.0 0.00 0.00 0.00 60 1014.6
20210617003654 59 357 0.0 1.0 0.00 0.00 0.00 58 1014.6
20210617003154 59 357 0.0 1.0 0.00 0.00 0.00 57 1014.5
20210617002654 60 31 0.0 0.0 0.00 0.00 0.00 56 1014.5
20210617002154 60 31 0.0 1.0 0.00 0.00 0.00 55 1014.3
20210617001654 61 31 0.0 1.0 0.00 0.00 0.00 53 1014.3
20210617001154 61 62 0.0 1.0 0.00 0.00 0.00 53 1014.2
20210617000652 62 102 0.0 1.0 0.00 0.00 0.00 50 1014.1
20210617000153 62 102 0.0 0.0 0.00 0.00 0.00 49 1014.1
20210616235653 63 102 0.0 0.0 0.00 0.00 0.00 47 1014.0
20210616235153 64 120 0.0 1.0 0.00 0.00 0.00 46 1014.0
20210616234653 64 117 0.0 2.0 0.00 0.00 0.00 46 1013.9
20210616234151 64 219 1.0 6.0 0.00 0.00 0.00 46 1013.8
20210616233650 65 250 0.0 6.0 0.00 0.00 0.00 45 1013.8
20210616233152 65 281 0.0 9.0 0.00 0.00 0.00 43 1013.8
20210616232653 66 7 1.0 9.0 0.00 0.00 0.00 42 1013.6
20210616232151 66 11 1.0 7.0 0.00 0.00 0.00 42 1013.6
20210616231652 67 240 2.0 7.0 0.00 0.00 0.00 42 1013.6
20210616231156 67 323 3.0 7.0 0.00 0.00 0.00 41 1013.6
20210616230649 68 343 3.0 6.0 0.00 0.00 0.00 40 1013.5
20210616230152 68 73 1.0 4.0 0.00 0.00 0.00 42 1013.5
20210616225652 69 0 0.0 4.0 0.00 0.00 0.00 41 1013.5
20210616225151 68 230 0.0 4.0 0.00 0.00 0.00 42 1013.4
20210616224652 68 65 1.0 6.0 0.00 0.00 0.00 41 1013.4
20210616224150 68 324 0.0 6.0 0.00 0.00 0.00 42 1013.3
20210616223652 68 336 3.0 7.0 0.00 0.00 0.00 40 1013.4
20210616223149 69 283 4.0 7.0 0.00 0.00 0.00 40 1013.3
20210616222650 69 235 2.0 6.0 0.00 0.00 0.00 42 1013.2
20210616222151 69 316 2.0 7.0 0.00 0.00 0.00 41 1013.2
20210616221650 69 337 3.0 10.0 0.00 0.00 0.00 40 1013.2
20210616221151 69 276 4.0 10.0 0.00 0.00 0.00 40 1013.2
20210616220649 69 321 2.0 9.0 0.00 0.00 0.00 41 1013.3
20210616220150 69 243 2.0 10.0 0.00 0.00 0.00 40 1013.2
20210616215649 69 276 4.0 10.0 0.00 0.00 0.00 41 1013.2
20210616215149 69 347 4.0 14.0 0.00 0.00 0.00 39 1013.2
20210616214651 69 176 4.0 14.0 0.00 0.00 0.00 39 1013.2
20210616214150 69 100 4.0 13.0 0.00 0.00 0.00 40 1013.2
20210616213650 69 295 4.0 13.0 0.00 0.00 0.00 40 1013.0
20210616213148 69 337 2.0 5.0 0.00 0.00 0.00 42 1013.1
20210616212647 69 99 1.0 18.0 0.00 0.00 0.00 43 1013.0
20210616212148 69 48 6.0 18.0 0.00 0.00 0.00 39 1013.1
20210616211648 70 69 3.0 10.0 0.00 0.00 0.00 40 1013.1
20210616211147 70 100 1.0 7.0 0.00 0.00 0.00 41 1013.0
20210616210648 70 75 3.0 6.0 0.00 0.00 0.00 41 1013.0
20210616210146 69 224 1.0 9.0 0.00 0.00 0.00 39 1013.0
20210616205647 69 334 2.0 9.0 0.00 0.00 0.00 40 1013.1
20210616205147 70 341 3.0 10.0 0.00 0.00 0.00 39 1013.0
20210616204643 70 345 3.0 10.0 0.00 0.00 0.00 39 1013.0
20210616204147 70 295 3.0 11.0 0.00 0.00 0.00 38 1013.1
20210616203645 70 73 4.0 11.0 0.00 0.00 0.00 39 1013.1
20210616203146 70 351 1.0 10.0 0.00 0.00 0.00 43 1013.1
20210616202646 70 144 3.0 11.0 0.00 0.00 0.00 39 1012.9
20210616202146 70 243 5.0 11.0 0.00 0.00 0.00 42 1012.9
20210616201646 70 341 2.0 7.0 0.00 0.00 0.00 40 1013.0
20210616201147 70 188 3.0 9.0 0.00 0.00 0.00 42 1013.0
20210616200644 70 17 4.0 11.0 0.00 0.00 0.00 40 1013.1
20210616200143 69 357 4.0 11.0 0.00 0.00 0.00 38 1013.0
20210616195646 70 89 2.0 9.0 0.00 0.00 0.00 39 1013.1
20210616195146 70 300 3.0 12.0 0.00 0.00 0.00 38 1013.0
20210616194644 70 93 4.0 12.0 0.00 0.00 0.00 41 1013.1
20210616194145 70 104 3.0 9.0 0.00 0.00 0.00 40 1013.2
20210616193645 70 78 2.0 11.0 0.00 0.00 0.00 41 1013.1
20210616193143 70 7 3.0 11.0 0.00 0.00 0.00 41 1013.1
20210616192643 70 62 4.0 13.0 0.00 0.00 0.00 40 1013.1
20210616192143 70 90 3.0 13.0 0.00 0.00 0.00 44 1013.2
20210616191646 70 80 2.0 15.0 0.00 0.00 0.00 40 1013.1
20210616191144 70 96 4.0 15.0 0.00 0.00 0.00 43 1013.1
20210616190644 70 257 4.0 9.0 0.00 0.00 0.00 42 1013.1
20210616190144 70 158 2.0 9.0 0.00 0.00 0.00 43 1013.0
20210616185643 70 83 4.0 7.0 0.00 0.00 0.00 41 1013.1
20210616185142 70 281 3.0 7.0 0.00 0.00 0.00 40 1013.1
20210616184641 70 230 3.0 14.0 0.00 0.00 0.00 41 1013.1
20210616184144 70 157 5.0 14.0 0.00 0.00 0.00 41 1013.1
20210616183642 70 305 5.0 11.0 0.00 0.00 0.00 42 1013.3
20210616183143 70 241 5.0 11.0 0.00 0.00 0.00 39 1013.1
20210616182642 70 330 2.0 6.0 0.00 0.00 0.00 39 1013.1
20210616182141 70 99 2.0 9.0 0.00 0.00 0.00 41 1013.0
20210616181640 69 326 4.0 10.0 0.00 0.00 0.00 46 1013.0
20210616181142 69 314 4.0 12.0 0.00 0.00 0.00 42 1013.1
20210616180641 69 313 7.0 12.0 0.00 0.00 0.00 41 1013.1
20210616180143 70 250 3.0 11.0 0.00 0.00 0.00 43 1013.2
20210616175641 69 1 2.0 10.0 0.00 0.00 0.00 43 1013.0
20210616175141 69 80 3.0 16.0 0.00 0.00 0.00 42 1013.0
20210616174640 69 130 5.0 19.0 0.00 0.00 0.00 44 1013.1
20210616174140 69 314 6.0 19.0 0.00 0.00 0.00 46 1013.1
20210616173641 69 73 3.0 11.0 0.00 0.00 0.00 45 1013.0
20210616173142 69 350 3.0 9.0 0.00 0.00 0.00 43 1012.9
20210616172640 69 331 1.0 9.0 0.00 0.00 0.00 43 1013.0
20210616172142 69 52 5.0 9.0 0.00 0.00 0.00 41 1013.1
20210616171640 69 61 1.0 12.0 0.00 0.00 0.00 46 1013.0
20210616171139 69 313 7.0 12.0 0.00 0.00 0.00 41 1012.9
20210616170638 69 226 4.0 13.0 0.00 0.00 0.00 43 1012.9
20210616170140 69 83 4.0 13.0 0.00 0.00 0.00 41 1013.0
20210616165639 69 117 5.0 12.0 0.00 0.00 0.00 41 1013.0
20210616165139 69 32 3.0 12.0 0.00 0.00 0.00 42 1013.0
20210616164639 69 99 4.0 10.0 0.00 0.00 0.00 41 1013.0
20210616164139 69 135 1.0 12.0 0.00 0.00 0.00 48 1013.0
20210616163638 69 110 5.0 12.0 0.00 0.00 0.00 42 1013.0
20210616163140 69 97 2.0 7.0 0.00 0.00 0.00 43 1013.1
20210616162637 69 99 3.0 11.0 0.00 0.00 0.00 40 1013.1
20210616162139 68 353 4.0 13.0 0.00 0.00 0.00 41 1013.1
20210616161637 69 75 4.0 13.0 0.00 0.00 0.00 41 1013.1
20210616161138 69 314 3.0 6.0 0.00 0.00 0.00 45 1013.1
20210616160638 68 351 1.0 7.0 0.00 0.00 0.00 44 1013.0
20210616160138 69 99 4.0 13.0 0.00 0.00 0.00 42 1013.0
20210616155636 68 324 3.0 13.0 0.00 0.00 0.00 43 1013.0
20210616155138 68 106 3.0 6.0 0.00 0.00 0.00 43 1012.8
20210616154636 68 212 1.0 14.0 0.00 0.00 0.00 48 1012.8
20210616154135 68 117 2.0 14.0 0.00 0.00 0.00 46 1012.9
20210616153636 68 116 3.0 13.0 0.00 0.00 0.00 45 1012.9
20210616153136 67 49 2.0 13.0 0.00 0.00 0.00 47 1013.0
20210616152636 67 282 4.0 10.0 0.00 0.00 0.00 43 1013.0
20210616152135 68 237 1.0 6.0 0.00 0.00 0.00 52 1012.8
20210616151635 67 235 2.0 9.0 0.00 0.00 0.00 49 1012.7
20210616151135 67 259 2.0 10.0 0.00 0.00 0.00 46 1012.8
20210616150634 66 32 2.0 12.0 0.00 0.00 0.00 47 1012.9
20210616150137 66 326 2.0 12.0 0.00 0.00 0.00 46 1013.0
20210616145634 66 35 3.0 11.0 0.00 0.00 0.00 49 1012.8
20210616145134 66 221 2.0 15.0 0.00 0.00 0.00 46 1012.8
20210616144634 65 0 5.0 15.0 0.00 0.00 0.00 45 1012.8
20210616144135 65 87 2.0 13.0 0.00 0.00 0.00 44 1012.8
20210616143634 66 24 6.0 12.0 0.00 0.00 0.00 45 1012.9
20210616143133 66 61 4.0 12.0 0.00 0.00 0.00 49 1012.8
20210616142634 65 24 5.0 13.0 0.00 0.00 0.00 44 1012.9
20210616142135 66 192 4.0 13.0 0.00 0.00 0.00 47 1012.8
20210616141634 65 63 4.0 12.0 0.00 0.00 0.00 47 1012.7
20210616141133 65 16 2.0 12.0 0.00 0.00 0.00 45 1012.7
20210616140633 65 118 4.0 12.0 0.00 0.00 0.00 46 1012.7
20210616140135 65 276 1.0 9.0 0.00 0.00 0.00 44 1012.8
20210616135632 66 82 3.0 7.0 0.00 0.00 0.00 47 1012.7
20210616135133 65 250 4.0 7.0 0.00 0.00 0.00 48 1012.6
20210616134632 65 283 2.0 9.0 0.00 0.00 0.00 50 1012.6
20210616134133 65 202 3.0 11.0 0.00 0.00 0.00 50 1012.7
20210616133632 65 159 1.0 11.0 0.00 0.00 0.00 52 1012.7
20210616133132 65 83 3.0 6.0 0.00 0.00 0.00 52 1012.7
20210616132631 65 214 0.0 6.0 0.00 0.00 0.00 56 1012.7
20210616132132 65 32 3.0 6.0 0.00 0.00 0.00 55 1012.8
20210616131632 65 331 1.0 4.0 0.00 0.00 0.00 60 1012.8
20210616131132 64 233 1.0 4.0 0.00 0.00 0.00 59 1012.7
20210616130631 64 289 1.0 4.0 0.00 0.00 0.00 60 1012.8
20210616130131 64 338 1.0 3.0 0.00 0.00 0.00 61 1012.6
20210616125630 63 259 0.0 3.0 0.00 0.00 0.00 63 1012.5
20210616125131 63 321 1.0 3.0 0.00 0.00 0.00 64 1012.6
20210616124630 63 233 0.0 4.0 0.00 0.00 0.00 66 1012.6
20210616124131 62 331 2.0 4.0 0.00 0.00 0.00 66 1012.5
20210616123630 62 331 0.0 5.0 0.00 0.00 0.00 70 1012.5
20210616123131 62 269 1.0 5.0 0.00 0.00 0.00 68 1012.6
20210616122630 62 243 1.0 3.0 0.00 0.00 0.00 69 1012.5
20210616122129 62 38 0.0 6.0 0.00 0.00 0.00 72 1012.6
20210616121629 62 11 2.0 6.0 0.00 0.00 0.00 68 1012.5
20210616121128 62 348 1.0 3.0 0.00 0.00 0.00 71 1012.4
20210616120629 61 295 1.0 3.0 0.00 0.00 0.00 72 1012.5
20210616120128 61 216 1.0 2.0 0.00 0.00 0.00 72 1012.5
20210616115630 61 276 0.0 1.0 0.00 0.00 0.00 75 1012.6
20210616115129 60 351 0.0 1.0 0.00 0.00 0.00 74 1012.6
20210616114628 60 113 0.0 1.0 0.00 0.00 0.00 78 1012.5
20210616114127 59 268 0.0 5.0 0.00 0.00 0.00 78 1012.5
20210616113626 59 250 0.0 5.0 0.00 0.00 0.00 79 1012.4
20210616113128 58 350 1.0 4.0 0.00 0.00 0.00 81 1012.5
20210616112628 58 337 0.0 9.0 0.00 0.00 0.00 80 1012.5
20210616112128 58 334 2.0 9.0 0.00 0.00 0.00 81 1012.4
20210616111628 58 63 0.0 2.0 0.00 0.00 0.00 84 1012.5
20210616111127 58 285 0.0 3.0 0.00 0.00 0.00 84 1012.4
20210616110626 57 86 0.0 3.0 0.00 0.01 0.00 86 1012.4
20210616110126 57 351 0.0 1.0 0.00 0.01 0.00 89 1012.3
20210616105627 56 336 0.0 1.0 0.00 0.01 0.00 92 1012.3
20210616105128 55 333 0.0 2.0 0.00 0.01 0.00 94 1012.3
20210616104627 55 326 0.0 3.0 0.00 0.01 0.00 95 1012.3
20210616104127 54 320 0.0 3.0 0.00 0.01 0.00 96 1012.3
20210616103627 53 241 0.0 1.0 0.00 0.01 0.00 97 1012.2
20210616103127 52 241 0.0 1.0 0.00 0.01 0.00 97 1012.2
20210616102627 51 305 0.0 3.0 0.00 0.01 0.00 97 1012.0
20210616102126 51 330 0.0 3.0 0.00 0.01 0.00 97 1011.9
20210616101626 50 251 0.0 2.0 0.00 0.01 0.00 97 1011.9
20210616101127 49 274 0.0 2.0 0.00 0.01 0.00 97 1011.8
20210616100625 49 264 0.0 1.0 0.00 0.01 0.00 96 1011.8
20210616100126 49 264 0.0 1.0 0.00 0.01 0.00 96 1011.8
20210616095626 48 261 0.0 1.0 0.00 0.01 0.00 96 1011.8
20210616095125 48 261 0.0 1.0 0.00 0.01 0.00 96 1011.8
20210616094625 48 262 0.0 1.0 0.00 0.01 0.00 96 1011.8
20210616094124 48 255 0.0 1.0 0.00 0.01 0.00 96 1011.8
20210616093627 48 274 0.0 0.0 0.00 0.01 0.00 96 1011.7
20210616093124 48 274 0.0 0.0 0.00 0.01 0.00 96 1011.7
20210616092623 48 274 0.0 1.0 0.00 0.01 0.00 96 1011.7
20210616092123 48 274 0.0 1.0 0.00 0.01 0.00 96 1011.8
20210616091624 48 274 0.0 0.0 0.00 0.01 0.00 96 1011.6
20210616091123 48 274 0.0 1.0 0.00 0.01 0.00 96 1011.6
20210616090623 49 274 0.0 1.0 0.00 0.01 0.00 96 1011.3
20210616090122 49 257 0.0 1.0 0.00 0.01 0.00 96 1011.5
20210616085623 49 257 0.0 0.0 0.00 0.01 0.00 96 1011.3
20210616085124 49 257 0.0 0.0 0.00 0.01 0.00 96 1011.2
20210616084622 49 259 0.0 0.0 0.00 0.01 0.00 96 1011.2
20210616084122 49 259 0.0 0.0 0.00 0.01 0.00 95 1011.2
20210616083622 49 259 0.0 0.0 0.00 0.01 0.00 95 1011.2
20210616083122 49 259 0.0 0.0 0.00 0.01 0.00 95 1011.2
20210616082624 49 258 0.0 0.0 0.00 0.01 0.00 95 1011.2
20210616082124 50 258 0.0 0.0 0.00 0.01 0.00 96 1011.1
20210616081629 50 258 0.0 0.0 0.00 0.01 0.00 96 1011.1